Meteo Giornale » Osservazioni meteo Germania » Saarbruecken-Ensheim

ore: 01:50 - Osservazioni Meteo Saarbruecken-Ensheim
Lat. 49° 13' N Lon. 7° 7' E Alt. 322 metri s.l.m.

nuvoloso Europe/Berlin

15 °C

Nuvoloso

Temp. 24 Ore

15 °C

26 °C

Est/Nord-Est

9.3 Km/h

Dew point 15 °C

Umidità 100 %

Visibilità  10 Km

Il sole sorge alle ore 05:24

Il sole tramonta alle ore 21:42

Data e Ora Cielo e Fenomeni T °C DP °C Um. % Pres. hPa Vis. km Vento km/h
Oggi h: 01:50 nuvoloso Nuvoloso 15 15 100 1011 10 E/NE 9.3
Oggi h: 01:20 poco_nuvoloso Poco Nuvoloso 16 15 93 1011 10 E/NE 13
Oggi h: 00:50 sereno Sereno 16 15 93 1011 10 N/NE 9.3
Oggi h: 00:20 sereno Sereno 16 15 93 1011 10 E/SE 9.3
Ieri h: 23:50 poco_nuvoloso Poco Nuvoloso 16 15 93 1011 10 N 3.7
Ieri h: 23:20 coperto_pioggia Pioggia Debole 16 15 93 1010 10 N 16.7
Ieri h: 22:50 nuvoloso_temporali Temporale con Pioggia Debole 16 16 100 1011 9 N 5.5
Ieri h: 22:20 nuvoloso_temporali Temporale con Pioggia 17 16 93 1011 9 SO 27.8
Ieri h: 21:50 nuvoloso_piovaschi Debole Rovescio di Pioggia Temporale nelle Vicinanze 22 15 64 1009 10 SE 7.4
Ieri h: 21:20 poco_nuvoloso Poco Nuvoloso 22 15 64 1009 10 N 3.7
Ieri h: 20:50 sereno Sereno 23 16 64 1009 10 N 5.5
Ieri h: 20:20 sereno Sereno 23 14 56 1009 10 N 3.7
Ieri h: 19:50 sereno Sereno 24 13 50 1009 10 N 3.7
Ieri h: 19:20 sereno Sereno 25 14 50 1008 10 N 5.5
Ieri h: 18:50 sereno Sereno 25 14 50 1008 10 N 3.7
Ieri h: 18:20 poco_nuvoloso Poco Nuvoloso 25 13 47 1008 10 N 9.3
Ieri h: 17:50 poco_nuvoloso Poco Nuvoloso 26 14 47 1008 10 N 5.5
Ieri h: 17:20 poco_nuvoloso Poco Nuvoloso 25 15 53 1009 10 O/SO 7.4
Ieri h: 16:50 poco_nuvoloso Poco Nuvoloso 24 13 50 1009 10 N 5.5
Ieri h: 16:20 poco_nuvoloso Poco Nuvoloso 25 14 50 1009 10 SO 11.1
Ieri h: 15:50 poco_nuvoloso Poco Nuvoloso 25 14 50 1009 10 SO 11.1
Ieri h: 15:20 poco_nuvoloso Poco Nuvoloso 25 15 53 1009 10 SO 11.1
Ieri h: 14:50 nuvoloso Nuvoloso 23 14 56 1009 10 SO 14.8
Ieri h: 14:20 nuvoloso Nuvoloso 24 15 57 1009 10 O 14.8
Ieri h: 13:50 nuvoloso Nuvoloso 23 15 60 1009 10 O/SO 14.8
Ieri h: 13:20 nuvoloso Nuvoloso 22 15 64 1009 10 O/SO 16.7
Ieri h: 12:50 poco_nuvoloso Poco Nuvoloso 21 14 64 1009 10 O/SO 16.7
Ieri h: 12:20 poco_nuvoloso Poco Nuvoloso 21 15 68 1009 10 O/SO 14.8
Ieri h: 11:50 nuvoloso Nuvoloso 20 14 68 1009 10 SO 18.5
Ieri h: 11:20 nuvoloso Nuvoloso 19 15 77 1009 10 O/SO 16.7
Ieri h: 10:50 nuvoloso Nuvoloso 19 15 77 1009 10 SO 22.2
Ieri h: 10:20 molto_nuvoloso Molto Nuvoloso 18 15 82 1009 10 SO 16.7
Ieri h: 09:50 molto_nuvoloso Molto Nuvoloso 18 15 82 1009 10 SO 20.3
Ieri h: 09:20 molto_nuvoloso Molto Nuvoloso 17 15 88 1009 10 SO 20.3
Ieri h: 08:50 molto_nuvoloso Molto Nuvoloso 17 15 88 1008 10 SO 18.5
Ieri h: 08:20 molto_nuvoloso Molto Nuvoloso 17 15 88 1008 10 S/SO 16.7
Ieri h: 07:50 molto_nuvoloso Molto Nuvoloso 16 15 93 1008 10 SO 20.3
Ieri h: 07:20 molto_nuvoloso Molto Nuvoloso 16 15 93 1008 10 S/SO 13
Ieri h: 06:20 poco_nuvoloso Poco Nuvoloso 15 14 93 1008 10 S/SO 11.1
Ieri h: 05:50 molto_nuvoloso Molto Nuvoloso 15 15 100 1008 10 S/SO 18.5
Ieri h: 05:20 molto_nuvoloso Molto Nuvoloso 16 15 93 1007 10 S/SO 18.5
Ieri h: 04:50 molto_nuvoloso Molto Nuvoloso 15 15 100 1007 10 S/SO 25.9
Ieri h: 04:20 molto_nuvoloso Molto Nuvoloso 15 15 100 1007 10 S/SO 24
Ieri h: 03:50 molto_nuvoloso Molto Nuvoloso 16 15 93 1008 10 S/SO 20.3
Ieri h: 03:20 poco_nuvoloso Poco Nuvoloso 15 14 93 1007 10 S 14.8
Ieri h: 02:50 nuvoloso Nuvoloso 16 15 93 1007 10 S 11.1